CXA8101 ZBTJ-ZBAD

Flight info

Callsign CXA8101
Flight time 0h 37m
Altitude 23600
Route ELKUR8W ELKUR DCT AVBOX AVBOX9M
Aircraft B738/M-SDE2E3FGHIRWXY/LB1

Departure

Time 2026-04-14 03:55
Airport Tianjin Binhai International Airport (ZBTJ)

Arrival

Time 2026-04-14 04:33
Airport Beijing Daxing International Airport (ZBAD)
Time Latitude Longitude Altitude Speed Heading
2026-04-14 03:29 39.12657 117.35165 18 ft 0 kts 93°
2026-04-14 03:42 39.12658 117.35138 18 ft 4 kts 93°
2026-04-14 03:43 39.12660 117.35104 18 ft 4 kts 93°
2026-04-14 03:43 39.12662 117.35071 18 ft 4 kts 111°
2026-04-14 03:43 39.12677 117.35045 21 ft 4 kts 154°
2026-04-14 03:43 39.12701 117.35037 19 ft 3 kts 182°
2026-04-14 03:44 39.12704 117.35037 19 ft 0 kts 183°
2026-04-14 03:46 39.12702 117.35037 19 ft 2 kts 183°
2026-04-14 03:46 39.12649 117.35034 20 ft 13 kts 182°
2026-04-14 03:46 39.12553 117.35023 18 ft 1 kts 195°
2026-04-14 03:47 39.12552 117.35022 19 ft 1 kts 200°
2026-04-14 03:47 39.12538 117.34985 18 ft 7 kts 262°
2026-04-14 03:47 39.12577 117.34914 18 ft 13 kts 328°
2026-04-14 03:47 39.12662 117.34862 19 ft 13 kts 335°
2026-04-14 03:48 39.12745 117.34813 18 ft 13 kts 335°
2026-04-14 03:48 39.12825 117.34764 18 ft 13 kts 334°
2026-04-14 03:48 39.12912 117.34710 18 ft 19 kts 335°
2026-04-14 03:48 39.13058 117.34619 18 ft 25 kts 334°
2026-04-14 03:49 39.13214 117.34526 18 ft 24 kts 335°
2026-04-14 03:49 39.13359 117.34436 18 ft 23 kts 334°
2026-04-14 03:49 39.13499 117.34350 18 ft 22 kts 334°
2026-04-14 03:49 39.13636 117.34267 20 ft 21 kts 335°
2026-04-14 03:50 39.13769 117.34186 19 ft 21 kts 335°
2026-04-14 03:50 39.13819 117.34081 18 ft 14 kts 247°
2026-04-14 03:50 39.13780 117.33970 19 ft 14 kts 244°
2026-04-14 03:50 39.13739 117.33865 20 ft 13 kts 236°
2026-04-14 03:51 39.13679 117.33854 20 ft 0 kts 155°
2026-04-14 03:54 39.13677 117.33855 20 ft 4 kts 155°
2026-04-14 03:54 39.13430 117.34006 17 ft 76 kts 155°
2026-04-14 03:55 39.12781 117.34406 19 ft 131 kts 154°
2026-04-14 03:55 39.11826 117.35001 83 ft 169 kts 154°
2026-04-14 03:55 39.10788 117.35646 791 ft 159 kts 152°
2026-04-14 03:55 39.09774 117.36278 1375 ft 166 kts 154°
2026-04-14 03:56 39.08733 117.36921 1952 ft 174 kts 155°
2026-04-14 03:56 39.07559 117.37645 2187 ft 199 kts 156°
2026-04-14 03:56 39.06243 117.38451 2378 ft 219 kts 156°
2026-04-14 03:56 39.04807 117.39326 2622 ft 234 kts 157°
2026-04-14 03:57 39.03311 117.40234 3011 ft 240 kts 158°
2026-04-14 03:57 39.01788 117.41159 3498 ft 243 kts 158°
2026-04-14 03:57 39.00253 117.42087 4114 ft 244 kts 159°
2026-04-14 03:57 38.98717 117.43015 4846 ft 244 kts 158°
2026-04-14 03:58 38.97403 117.44402 5444 ft 258 kts 126°
2026-04-14 03:58 38.96887 117.46629 6074 ft 269 kts 92°
2026-04-14 03:58 38.97044 117.49033 6761 ft 271 kts 83°
2026-04-14 03:58 38.97356 117.51426 7431 ft 273 kts 81°
2026-04-14 03:59 38.97690 117.53832 8095 ft 276 kts 80°
2026-04-14 03:59 38.98020 117.56290 8786 ft 279 kts 81°
2026-04-14 03:59 38.98336 117.58768 9489 ft 282 kts 81°
2026-04-14 03:59 38.98646 117.61268 10192 ft 284 kts 81°
2026-04-14 04:00 38.98953 117.63787 10852 ft 287 kts 81°
2026-04-14 04:00 38.99141 117.66336 11518 ft 290 kts 96°
2026-04-14 04:00 38.98500 117.68745 12181 ft 290 kts 126°
2026-04-14 04:00 38.97069 117.70527 12754 ft 288 kts 153°
2026-04-14 04:01 38.95200 117.71352 12824 ft 284 kts 175°
2026-04-14 04:01 38.93240 117.71678 12843 ft 285 kts 176°
2026-04-14 04:01 38.91277 117.71978 12849 ft 282 kts 178°
2026-04-14 04:01 38.89396 117.71703 12843 ft 273 kts 206°
2026-04-14 04:02 38.87855 117.70364 12838 ft 269 kts 231°
2026-04-14 04:02 38.86818 117.68263 12849 ft 293 kts 251°
2026-04-14 04:02 38.86357 117.65604 12855 ft 319 kts 262°
2026-04-14 04:02 38.86057 117.62784 12856 ft 343 kts 263°
2026-04-14 04:03 38.85802 117.59526 12842 ft 367 kts 271°
2026-04-14 04:03 38.86329 117.56274 12854 ft 378 kts 289°
2026-04-14 04:03 38.87267 117.53091 12832 ft 381 kts 290°
2026-04-14 04:03 38.88209 117.49930 12811 ft 379 kts 290°
2026-04-14 04:04 38.89134 117.46771 12821 ft 378 kts 290°
2026-04-14 04:04 38.90045 117.43601 12825 ft 378 kts 289°
2026-04-14 04:04 38.90947 117.40429 12824 ft 378 kts 289°
2026-04-14 04:04 38.91709 117.37208 12814 ft 378 kts 278°
2026-04-14 04:05 38.91613 117.33852 12838 ft 378 kts 259°
2026-04-14 04:05 38.90788 117.30653 12828 ft 380 kts 245°
2026-04-14 04:05 38.89542 117.27652 12829 ft 381 kts 243°
2026-04-14 04:05 38.88272 117.24665 12804 ft 381 kts 243°
2026-04-14 04:06 38.87014 117.21665 12818 ft 382 kts 243°
2026-04-14 04:06 38.85771 117.18658 12814 ft 382 kts 243°
2026-04-14 04:06 38.84534 117.15644 12826 ft 382 kts 243°
2026-04-14 04:06 38.83299 117.12632 12821 ft 382 kts 243°
2026-04-14 04:07 38.82064 117.09622 12814 ft 381 kts 243°
2026-04-14 04:07 38.80827 117.06612 12820 ft 382 kts 243°
2026-04-14 04:07 38.79587 117.03596 12820 ft 382 kts 243°
2026-04-14 04:07 38.78348 117.00587 12818 ft 382 kts 243°
2026-04-14 04:08 38.77105 116.97574 12818 ft 382 kts 243°
2026-04-14 04:08 38.75862 116.94564 12813 ft 382 kts 243°
2026-04-14 04:08 38.74614 116.91559 12810 ft 382 kts 243°
2026-04-14 04:08 38.73351 116.88566 12811 ft 382 kts 243°
2026-04-14 04:09 38.72080 116.85574 12816 ft 382 kts 243°
2026-04-14 04:09 38.70826 116.82624 12815 ft 383 kts 243°
2026-04-14 04:09 38.69553 116.79631 12813 ft 383 kts 243°
2026-04-14 04:09 38.68280 116.76634 12814 ft 383 kts 243°
2026-04-14 04:10 38.67010 116.73643 12814 ft 383 kts 243°
2026-04-14 04:10 38.65737 116.70650 12814 ft 383 kts 243°
2026-04-14 04:10 38.64516 116.67622 12805 ft 382 kts 249°
2026-04-14 04:10 38.63971 116.64336 12824 ft 380 kts 268°
2026-04-14 04:11 38.64055 116.60956 12824 ft 379 kts 273°
2026-04-14 04:11 38.64198 116.57589 12814 ft 380 kts 273°
2026-04-14 04:11 38.64562 116.54249 12789 ft 380 kts 287°
2026-04-14 04:11 38.65789 116.51268 12823 ft 381 kts 307°
2026-04-14 04:12 38.67707 116.48923 12815 ft 384 kts 324°
2026-04-14 04:12 38.70120 116.47434 12804 ft 388 kts 342°
2026-04-14 04:12 38.72804 116.47011 12804 ft 393 kts
2026-04-14 04:12 38.75486 116.47714 12813 ft 397 kts 19°
2026-04-14 04:13 38.77902 116.49469 12823 ft 400 kts 33°
2026-04-14 04:13 38.80112 116.51493 12710 ft 380 kts 34°
2026-04-14 04:13 38.82165 116.53414 12544 ft 360 kts 34°
2026-04-14 04:13 38.84132 116.55252 12298 ft 342 kts 33°
2026-04-14 04:14 38.86034 116.57014 11926 ft 331 kts 33°
2026-04-14 04:14 38.87860 116.58693 11706 ft 316 kts 33°
2026-04-14 04:14 38.89622 116.60306 11405 ft 306 kts 33°
2026-04-14 04:14 38.91326 116.61861 11131 ft 296 kts 32°
2026-04-14 04:15 38.92986 116.63376 10807 ft 289 kts 32°
2026-04-14 04:15 38.94616 116.64862 10404 ft 287 kts 32°
2026-04-14 04:15 38.96240 116.66343 9970 ft 285 kts 32°
2026-04-14 04:15 38.97853 116.67815 9509 ft 284 kts 32°
2026-04-14 04:16 38.99464 116.69287 9006 ft 284 kts 32°
2026-04-14 04:16 39.01074 116.70759 8527 ft 284 kts 32°
2026-04-14 04:16 39.02685 116.72210 8093 ft 281 kts 28°
2026-04-14 04:16 39.04469 116.72943 7872 ft 261 kts 359°
2026-04-14 04:17 39.06248 116.72876 7782 ft 257 kts 349°
2026-04-14 04:17 39.08071 116.72572 7710 ft 270 kts 348°
2026-04-14 04:17 39.09951 116.72252 7599 ft 274 kts 348°
2026-04-14 04:17 39.11843 116.71948 7499 ft 273 kts 349°
2026-04-14 04:18 39.13728 116.71653 7402 ft 272 kts 349°
2026-04-14 04:18 39.15609 116.71365 7313 ft 271 kts 349°
2026-04-14 04:18 39.17482 116.71080 7226 ft 271 kts 349°
2026-04-14 04:18 39.19352 116.70796 7136 ft 270 kts 349°
2026-04-14 04:19 39.21195 116.70517 7057 ft 269 kts 349°
2026-04-14 04:19 39.23078 116.70231 6967 ft 268 kts 349°
2026-04-14 04:19 39.24932 116.69950 6878 ft 268 kts 349°
2026-04-14 04:19 39.26755 116.69674 6794 ft 268 kts 349°
2026-04-14 04:20 39.28605 116.69393 6705 ft 267 kts 349°
2026-04-14 04:20 39.30434 116.69016 6604 ft 263 kts 336°
2026-04-14 04:20 39.31912 116.67751 6510 ft 253 kts 306°
2026-04-14 04:20 39.32681 116.65784 6476 ft 244 kts 279°
2026-04-14 04:21 39.32623 116.63619 6488 ft 244 kts 252°
2026-04-14 04:21 39.32138 116.62316 6492 ft 244 kts 235°
2026-04-14 04:21 39.30876 116.60873 6452 ft 242 kts 214°
2026-04-14 04:21 39.29347 116.59925 6061 ft 248 kts 205°
2026-04-14 04:22 39.27734 116.59105 5744 ft 248 kts 205°
2026-04-14 04:22 39.26114 116.58354 5504 ft 248 kts 196°
2026-04-14 04:22 39.24384 116.58320 5369 ft 251 kts 177°
2026-04-14 04:22 39.22653 116.58611 5250 ft 251 kts 177°
2026-04-14 04:23 39.20921 116.58888 5132 ft 251 kts 178°
2026-04-14 04:23 39.19190 116.59159 5013 ft 250 kts 178°
2026-04-14 04:23 39.17477 116.59423 4906 ft 245 kts 178°
2026-04-14 04:23 39.15801 116.59682 4795 ft 238 kts 178°
2026-04-14 04:24 39.14199 116.59691 4662 ft 224 kts 200°
2026-04-14 04:24 39.12904 116.58740 4622 ft 212 kts 226°
2026-04-14 04:24 39.12037 116.57220 4530 ft 212 kts 245°
2026-04-14 04:24 39.11660 116.55383 4451 ft 214 kts 261°
2026-04-14 04:25 39.11480 116.53465 4374 ft 217 kts 261°
2026-04-14 04:25 39.11435 116.51501 4270 ft 224 kts 279°
2026-04-14 04:25 39.12148 116.49696 4179 ft 233 kts 309°
2026-04-14 04:25 39.13458 116.48495 4078 ft 241 kts 335°
2026-04-14 04:26 39.15109 116.48025 4000 ft 245 kts 348°
2026-04-14 04:26 39.16821 116.47807 3885 ft 242 kts 352°
2026-04-14 04:26 39.18479 116.47620 3690 ft 237 kts 350°
2026-04-14 04:26 39.20123 116.47392 3338 ft 238 kts 349°
2026-04-14 04:27 39.21741 116.47145 3045 ft 234 kts 350°
2026-04-14 04:27 39.23299 116.46906 3009 ft 217 kts 349°
2026-04-14 04:27 39.24720 116.46681 2982 ft 194 kts 349°
2026-04-14 04:27 39.25974 116.46484 3016 ft 169 kts 348°
2026-04-14 04:28 39.27116 116.46301 2990 ft 164 kts 348°
2026-04-14 04:28 39.28236 116.46120 2998 ft 161 kts 348°
2026-04-14 04:28 39.29349 116.45946 2989 ft 161 kts 348°
2026-04-14 04:28 39.30471 116.45767 3030 ft 163 kts 348°
2026-04-14 04:29 39.31606 116.45586 3029 ft 165 kts 348°
2026-04-14 04:29 39.32752 116.45406 2920 ft 165 kts 348°
2026-04-14 04:29 39.33895 116.45225 2711 ft 165 kts 348°
2026-04-14 04:29 39.35016 116.45047 2499 ft 160 kts 349°
2026-04-14 04:30 39.36105 116.44875 2249 ft 155 kts 351°
2026-04-14 04:30 39.37174 116.44709 2074 ft 156 kts 351°
2026-04-14 04:30 39.38275 116.44529 1853 ft 161 kts 353°
2026-04-14 04:30 39.39369 116.44360 1635 ft 157 kts 353°
2026-04-14 04:31 39.40442 116.44175 1394 ft 153 kts 353°
2026-04-14 04:31 39.41506 116.43997 1200 ft 155 kts 353°
2026-04-14 04:31 39.43652 116.43674 823 ft 152 kts 355°
2026-04-14 04:32 39.44694 116.43499 619 ft 151 kts 354°
2026-04-14 04:32 39.45731 116.43355 411 ft 147 kts 356°
2026-04-14 04:32 39.46741 116.43197 208 ft 143 kts 354°
2026-04-14 04:32 39.47690 116.43049 96 ft 127 kts 356°
2026-04-14 04:33 39.48396 116.42941 99 ft 75 kts 354°
2026-04-14 04:33 39.48767 116.42885 95 ft 45 kts 353°
2026-04-14 04:33 39.49014 116.42839 94 ft 22 kts 347°
2026-04-14 04:33 39.49155 116.42766 93 ft 22 kts 329°
2026-04-14 04:34 39.49278 116.42662 91 ft 21 kts 325°
2026-04-14 04:34 39.49398 116.42555 86 ft 21 kts 327°
2026-04-14 04:34 39.49517 116.42458 86 ft 20 kts 327°
2026-04-14 04:34 39.49645 116.42407 87 ft 19 kts 352°
2026-04-14 04:35 39.49776 116.42387 87 ft 19 kts 354°
2026-04-14 04:35 39.49902 116.42369 84 ft 18 kts 353°
2026-04-14 04:35 39.50024 116.42348 88 ft 17 kts 352°
2026-04-14 04:35 39.50142 116.42330 86 ft 17 kts 352°
2026-04-14 04:36 39.50256 116.42312 85 ft 16 kts 352°
2026-04-14 04:36 39.50365 116.42293 84 ft 15 kts 353°
2026-04-14 04:36 39.50470 116.42279 88 ft 15 kts 356°
2026-04-14 04:36 39.50570 116.42263 85 ft 14 kts 352°
2026-04-14 04:37 39.50685 116.42241 86 ft 21 kts 349°
2026-04-14 04:37 39.50815 116.42212 85 ft 9 kts 320°
2026-04-14 04:37 39.50820 116.42125 84 ft 13 kts 255°
2026-04-14 04:37 39.50813 116.42004 84 ft 13 kts 262°
2026-04-14 04:38 39.50756 116.41922 85 ft 13 kts 204°
2026-04-14 04:38 39.50728 116.41886 86 ft 4 kts 262°
2026-04-14 04:38 39.50745 116.41817 84 ft 10 kts 292°
2026-04-14 04:38 39.50750 116.41802 87 ft 0 kts 293°
2026-04-14 04:39 39.50750 116.41801 84 ft 0 kts 293°